Teesside, United Kingdom

9:09 PM GMT on December 13, 2019 (GMT +0000)
Teesside

Weather History for EGNV - July, 2019

Change the Weather History Date:

Tuesday, July 16, 2019

  Actual Average Record
Temperature  
Mean Temperature 63 °F -  
Max Temperature 75 °F 67 °F 82 °F (2006)
Min Temperature 51 °F 51 °F 46 °F (2001)
Degree Days  
Heating Degree Days 2    
Growing Degree Days 13 (Base 50)    
Moisture  
Dew Point 53 °F    
Average Humidity 62    
Maximum Humidity 100    
Minimum Humidity 44    
Precipitation  
Precipitation 0.00 in - - ()
Sea Level Pressure  
Sea Level Pressure 30.04 in    
Wind  
Wind Speed 7 mph ()    
Max Wind Speed 14 mph    
Max Gust Speed -    
Visibility 6.2 miles    
Events Fog    
Averages and records for this station are not official NWS values.
T = Trace of Precipitation, MM = Missing Value Source: Averaged Metar Reports

Daily Weather History Graph

Daily Weather History Graph

Search for Another Location

Airport or City:

Astronomy

Jul. 16, 2019 Rise Set
Actual Time 4:50 AM BST 9:31 PM BST
Civil Twilight 3:59 AM BST 10:22 PM BST
Nautical Twilight 2:34 AM BST 11:46 PM BST
Astronomical Twilight Sun does not rise Sun does not rise
Moon 9:28 PM BST (7/16) 4:12 AM BST (7/16)
Length of Visible Light 18h 23m
Length of Day
16h 41m
Full, 100% of the Moon is Illuminated
Jul 16
Full
Jul 16
Full
Jul 25
Last Quarter
Aug 1
New
Aug 7
First Quarter

Hourly Weather History & Observations

Time (BST) Temp. Dew Point Humidity Pressure Visibility Wind Dir Wind Speed Gust Speed Precip Events Conditions
5:50 AM 51.8 °F 50.0 °F 94% 30.09 in 6.2 mi WSW 4.6 mph - N/A Fog Unknown
6:20 AM 51.8 °F 51.8 °F 100% 30.09 in 6.2 mi SW 5.8 mph - N/A Fog Unknown
6:50 AM 53.6 °F 51.8 °F 94% 30.09 in 6.2 mi SSW 5.8 mph - N/A Fog Unknown
7:20 AM 55.4 °F 53.6 °F 94% 30.09 in 6.2 mi SSW 4.6 mph - N/A   Partly Cloudy
7:50 AM 57.2 °F 53.6 °F 88% 30.09 in 6.2 mi SSW 6.9 mph - N/A   Partly Cloudy
8:20 AM 59.0 °F 55.4 °F 88% 30.09 in 6.2 mi SSW 4.6 mph - N/A   Partly Cloudy
8:50 AM 60.8 °F 55.4 °F 82% 30.06 in 6.2 mi Variable 3.5 mph - N/A   Partly Cloudy
9:20 AM 64.4 °F 55.4 °F 73% 30.06 in 6.2 mi SSW 5.8 mph - N/A   Partly Cloudy
9:50 AM 66.2 °F 55.4 °F 68% 30.06 in - Variable 3.5 mph - N/A   Clear
10:20 AM 68.0 °F 57.2 °F 68% 30.06 in 6.2 mi SSW 5.8 mph - N/A   Partly Cloudy
10:50 AM 68.0 °F 55.4 °F 64% 30.06 in 6.2 mi SW 6.9 mph - N/A   Partly Cloudy
11:20 AM 69.8 °F 57.2 °F 64% 30.06 in 6.2 mi South 5.8 mph - N/A   Partly Cloudy
11:50 AM 71.6 °F 57.2 °F 60% 30.06 in 6.2 mi Variable 4.6 mph - N/A   Partly Cloudy
12:20 PM 73.4 °F 53.6 °F 50% 30.06 in 6.2 mi West 12.7 mph - N/A   Partly Cloudy
12:50 PM 73.4 °F 51.8 °F 47% 30.06 in 6.2 mi West 13.8 mph - N/A   Partly Cloudy
1:20 PM 73.4 °F 53.6 °F 50% 30.04 in 6.2 mi WSW 13.8 mph - N/A   Partly Cloudy
1:50 PM 73.4 °F 53.6 °F 50% 30.04 in 6.2 mi West 11.5 mph - N/A   Partly Cloudy
2:20 PM 71.6 °F 51.8 °F 50% 30.04 in 6.2 mi West 12.7 mph - N/A   Partly Cloudy
2:50 PM 73.4 °F 50.0 °F 44% 30.04 in 6.2 mi SW 11.5 mph - N/A   Partly Cloudy
3:20 PM 73.4 °F 50.0 °F 44% 30.04 in 6.2 mi West 9.2 mph - N/A   Partly Cloudy
3:50 PM 75.2 °F 51.8 °F 44% 30.04 in 6.2 mi West 13.8 mph - N/A   Partly Cloudy
4:20 PM 75.2 °F 51.8 °F 44% 30.04 in 6.2 mi West 10.4 mph - N/A   Partly Cloudy
4:50 PM 73.4 °F 50.0 °F 44% 30.01 in 6.2 mi West 11.5 mph - N/A   Partly Cloudy
5:20 PM 73.4 °F 50.0 °F 44% 30.01 in 6.2 mi WSW 8.1 mph - N/A   Partly Cloudy
5:50 PM 73.4 °F 50.0 °F 44% 30.01 in 6.2 mi WSW 12.7 mph - N/A   Partly Cloudy
6:20 PM 73.4 °F 50.0 °F 44% 30.01 in 6.2 mi SW 11.5 mph - N/A   Partly Cloudy
6:50 PM 73.4 °F 50.0 °F 44% 30.01 in 6.2 mi WSW 12.7 mph - N/A   Partly Cloudy
7:20 PM 71.6 °F 50.0 °F 46% 30.01 in 6.2 mi WSW 10.4 mph - N/A   Partly Cloudy
7:50 PM 69.8 °F 50.0 °F 49% 30.01 in 6.2 mi WSW 10.4 mph - N/A   Partly Cloudy
8:20 PM 66.2 °F 51.8 °F 60% 30.01 in 6.2 mi WSW 6.9 mph - N/A   Partly Cloudy
8:50 PM 62.6 °F 53.6 °F 72% 30.01 in 6.2 mi WSW 6.9 mph - N/A   Partly Cloudy
9:20 PM 62.6 °F 51.8 °F 68% 30.01 in 6.2 mi WSW 6.9 mph - N/A   Partly Cloudy
9:50 PM 60.8 °F 53.6 °F 77% 30.01 in - SW 5.8 mph - N/A   Clear